Temperature
11 11 10 10 10 10 10 9 9 8 7 7 7 7 6 6 6 5 5 5 5 5 5 5 5 5 5 5 5 6 6 6 6 6 6 6 6 6
10 10 10 10 9 9 9 9 8 8 7 7 6 6 6 5 5 4 4 4 4 4 4 4 5 4 4 5 5 5 5 5 5 6 6 6 6 6
10 9 9 9 9 9 8 8 8 7 6 6 5 5 5 4 4 4 4 4 4 4 4 4 4 4 4 4 4 4 5 5 5 5 5 5 5 5
9 9 9 9 8 8 8 8 7 7 6 6 5 5 4 4 3 3 3 3 3 3 3 3 3 3 3 3 4 4 4 4 4 4 4 5 5 5
9 8 8 8 8 8 7 7 6 6 6 5 4 4 4 3 3 3 2 2 2 2 2 2 3 3 3 3 3 3 3 4 4 4 4 4 4 4
8 8 8 8 7 7 6 6 6 5 5 4 4 3 3 3 2 2 2 2 2 2 2 2 2 2 2 2 2 3 3 3 3 3 3 4 4 4
7 7 7 7 7 6 6 5 5 5 4 4 3 3 2 2 2 2 2 2 2 2 2 1 1 2 2 2 2 2 2 2 2 3 3 3 3 3
6 6 6 6 6 5 5 5 4 4 4 3 3 2 2 2 2 1 1 1 1 1 1 1 1 1 1 1 1 1 2 2 2 2 2 2 2 2
6 6 5 5 5 5 4 4 4 3 3 2 2 2 2 2 1 1 1 1 1 1 1 1 1 1 1 1 1 1 1 1 1 1 1 1 1 1
5 5 5 4 4 4 4 3 3 3 2 2 2 2 1 1 1 1 1 0 0 0 0 0 0 0 0 0 0 1 1 1 1 1 1 1 1 1
4 4 4 4 4 3 3 3 2 2 2 1 1 1 1 1 0 0 0 0 0 -0 -0 -0 0 0 0 0 0 0 0 0 0 0 0 0 0 0
4 3 3 3 3 3 2 2 2 1 1 1 1 0 0 0 -0 -0 -0 -0 -0 -0 -0 -1 -0 -0 -0 -0 -0 -0 -0 -0 -0 -0 -0 -0 -0 0
3 3 3 2 2 2 1 1 1 1 0 0 0 -0 -0 -0 -0 -0 -1 -1 -1 -1 -1 -1 -1 -1 -1 -1 -1 -1 -1 -0 -0 -0 -0 -0 -0 -0
2 2 2 2 1 1 1 1 0 -0 -0 -1 -1 -1 -1 -1 -1 -1 -1 -1 -1 -1 -1 -1 -1 -1 -1 -1 -1 -1 -1 -1 -1 -1 -1 -1 -1 -1
2 1 1 1 1 0 -0 -0 -1 -1 -1 -1 -1 -1 -1 -2 -2 -2 -2 -2 -2 -2 -2 -2 -2 -2 -2 -1 -1 -1 -1 -1 -1 -1 -1 -1 -1 -1
1 1 0 0 -0 -0 -1 -1 -1 -1 -1 -2 -2 -2 -2 -2 -2 -2 -2 -2 -2 -2 -2 -2 -2 -2 -2 -2 -2 -1 -1 -1 -1 -1 -1 -2 -2 -2
1 0 -0 -0 -1 -1 -2 -2 -2 -2 -2 -2 -2 -3 -3 -3 -3 -3 -3 -3 -3 -2 -2 -3 -3 -3 -3 -2 -2 -2 -2 -2 -2 -2 -2 -2 -2 -2
-0 -0 -0 -1 -1 -1 -2 -2 -2 -2 -2 -3 -3 -3 -3 -3 -3 -3 -3 -3 -3 -3 -3 -3 -3 -3 -3 -3 -2 -2 -2 -2 -2 -2 -2 -2 -2 -2
-1 -1 -1 -1 -2 -2 -2 -2 -2 -3 -3 -3 -3 -3 -3 -4 -4 -4 -3 -3 -3 -3 -3 -3 -3 -3 -3 -3 -3 -3 -2 -2 -3 -3 -2 -2 -2 -2
-1 -1 -1 -2 -2 -2 -2 -3 -3 -3 -3 -3 -4 -4 -4 -4 -4 -4 -4 -4 -4 -4 -4 -3 -3 -3 -3 -3 -3 -3 -3 -3 -3 -3 -3 -3 -3 -3
-2 -2 -2 -2 -2 -3 -3 -3 -3 -3 -4 -4 -4 -4 -4 -4 -4 -4 -4 -4 -4 -4 -4 -3 -3 -4 -4 -4 -4 -3 -3 -4 -4 -4 -4 -4 -3 -3
-2 -2 -2 -3 -3 -3 -3 -3 -4 -4 -4 -4 -4 -4 -4 -4 -4 -4 -4 -4 -4 -4 -4 -4 -4 -5 -5 -4 -4 -4 -4 -4 -4 -4 -4 -4 -4 -4
-3 -3 -3 -3 -3 -3 -4 -4 -4 -4 -4 -4 -4 -4 -4 -4 -5 -5 -5 -5 -5 -5 -5 -5 -5 -5 -5 -5 -5 -5 -4 -4 -5 -5 -4 -5 -5 -5
Wind_Speed
6 6 5 4 4 3 3 3 4 4 3 3 2 2 4 4 3 3 4 4 5 5 6 7 7 7 7 7 7 8 8 7 6 4 3 4 4 4
5 6 5 3 4 3 3 3 3 3 3 1 2 2 4 4 3 3 5 5 4 5 6 7 7 8 8 8 9 9 9 8 7 6 6 6 6 6
6 6 6 6 5 4 3 3 2 2 3 1 1 2 2 3 2 3 4 4 4 5 5 6 7 7 8 9 9 9 9 9 9 8 8 7 7 7
7 7 7 5 6 5 4 4 3 3 3 3 2 2 2 3 2 2 3 4 4 5 5 5 6 6 6 8 8 9 9 9 9 9 9 8 8 8
7 7 7 7 6 4 4 4 3 3 3 3 3 1 1 2 2 2 2 2 3 4 4 4 5 5 6 7 8 8 9 9 10 10 10 9 9 8
5 6 7 7 7 6 5 5 4 4 4 4 3 2 2 2 2 2 1 1 1 2 3 3 4 5 6 7 8 8 8 9 9 9 10 11 11 11
5 5 5 6 7 6 5 5 5 4 4 4 3 2 2 3 3 2 2 2 0 1 1 1 2 3 3 4 6 7 8 8 9 9 9 11 11 12
6 5 6 6 7 7 7 6 6 5 5 4 3 3 4 4 3 3 3 2 2 1 2 1 2 1 1 3 4 5 6 7 8 8 9 10 11 11
6 6 5 6 7 6 7 6 4 4 5 4 4 4 4 5 5 4 3 3 2 3 3 1 1 1 2 3 4 4 5 5 6 7 8 9 9 9
5 7 7 7 7 7 6 5 4 3 2 2 3 3 3 4 5 5 5 3 2 1 2 2 1 1 1 2 3 4 4 4 5 5 6 7 7 8
5 6 7 7 10 10 7 6 5 3 4 6 6 6 6 6 7 5 5 4 2 1 1 2 2 1 1 0 3 4 4 3 3 4 4 5 5 5
4 5 7 8 10 10 7 7 6 4 4 4 4 4 4 5 6 5 5 4 2 2 2 2 2 2 1 0 1 3 3 3 3 3 3 3 3 3
4 4 5 10 10 10 8 6 7 6 5 5 4 3 3 3 3 4 3 3 3 2 3 3 2 2 2 1 0 1 3 2 2 2 3 3 3 3
4 4 6 11 10 10 7 8 10 8 4 4 4 3 3 3 3 4 5 5 4 3 4 4 3 3 3 2 1 1 1 2 2 2 2 3 3 3
4 7 9 10 9 7 8 10 8 5 4 4 4 3 3 4 4 4 4 5 6 5 4 3 3 3 3 3 2 2 1 1 2 2 2 3 3 3
4 7 10 9 6 7 7 5 4 4 5 4 4 3 4 4 4 3 3 3 2 1 2 2 3 3 2 2 2 2 3 2 2 2 2 3 5 6
5 4 4 4 4 4 4 4 4 4 4 4 4 4 4 4 4 3 3 3 2 3 2 1 2 2 2 2 2 3 3 3 3 3 2 2 3 7
7 5 5 5 5 5 5 5 4 4 4 4 5 5 5 5 4 4 3 4 4 3 3 3 3 1 0 2 6 5 4 3 3 3 3 3 4 5
5 5 5 5 5 5 5 5 5 5 5 5 5 5 5 5 5 5 5 4 4 4 4 4 4 4 3 2 3 8 5 3 3 3 4 4 4 3
3 4 5 5 5 5 5 5 4 5 5 5 5 5 5 5 5 5 5 5 5 4 4 5 5 6 5 4 2 3 8 5 4 4 3 3 3 6
3 3 3 3 4 4 4 5 5 5 5 5 5 5 5 5 5 5 5 8 6 5 6 6 6 8 3 2 1 2 3 9 7 4 3 2 2 2
2 3 3 3 3 4 4 4 5 5 5 5 5 5 5 5 6 6 6 6 6 6 5 4 4 4 4 5 5 4 3 3 8 10 9 7 4 4
3 3 3 3 3 3 4 5 5 5 5 6 6 6 6 6 5 6 6 6 5 6 5 4 4 4 5 5 5 4 5 4 3 4 6 13 15 14
Wind_Direction
194 183 184 180 168 161 153 156 167 193 212 168 145 137 128 123 136 125 112 99 91 81 70 57 48 45 39 30 28 26 25 24 28 43 66 93 109 110
189 175 174 164 151 144 145 152 160 177 192 154 143 140 128 126 138 121 113 106 101 98 84 71 62 54 46 41 39 36 39 41 44 52 71 89 103 104
175 169 166 155 154 148 146 152 168 166 189 145 87 121 126 132 126 118 118 106 105 104 94 81 73 62 49 47 43 40 44 48 51 60 66 84 96 104
175 164 160 154 151 151 155 166 175 168 169 177 153 134 128 146 141 122 116 114 111 108 100 90 79 70 61 56 48 46 49 52 57 62 66 76 89 94
168 164 161 158 160 156 156 163 161 148 142 153 152 128 124 144 129 108 112 107 121 119 110 95 83 76 74 64 54 55 59 63 64 62 62 67 78 90
153 154 156 160 159 154 157 158 151 144 141 145 145 144 140 141 140 157 156 134 134 126 119 109 99 87 77 69 61 63 68 70 69 69 69 71 74 81
128 128 130 133 140 148 155 156 155 157 156 153 149 143 156 166 185 173 170 148 165 153 107 108 112 91 78 72 67 68 70 71 72 75 78 80 81 83
139 128 124 126 132 136 139 144 151 159 164 160 164 176 187 184 167 164 149 148 202 200 132 155 138 107 110 104 94 85 81 77 75 80 83 84 86 87
149 145 143 147 140 136 138 129 118 128 149 158 171 185 180 178 164 163 168 168 192 178 129 162 139 130 135 120 115 107 101 92 85 85 90 91 92 94
153 154 151 150 152 147 141 132 123 108 121 139 161 165 152 152 163 164 156 124 85 81 123 151 161 148 132 143 146 139 123 111 102 98 97 96 93 92
142 146 150 150 160 156 143 138 130 122 110 119 121 126 132 145 145 129 133 133 148 202 167 139 147 116 110 148 171 164 153 141 130 121 114 110 104 95
142 147 158 161 166 163 152 151 157 162 140 120 109 111 119 145 151 150 158 156 149 186 195 141 139 124 123 308 160 175 182 184 175 163 154 146 132 107
160 162 169 172 171 171 165 162 171 160 146 139 132 122 106 101 94 99 121 149 157 178 171 138 136 137 142 159 253 195 175 172 180 188 186 182 177 159
167 165 167 170 173 172 167 168 165 154 137 138 139 140 136 127 105 94 92 91 96 135 147 136 144 158 144 148 202 203 174 173 168 174 202 212 221 215
162 166 167 169 170 168 172 172 162 148 147 155 161 163 149 140 124 109 95 91 79 77 104 130 140 146 148 165 172 165 181 231 193 184 202 214 219 224
154 166 169 168 161 167 170 165 152 160 162 168 163 152 141 146 156 155 152 146 119 90 69 116 149 152 165 181 177 197 194 204 201 199 202 223 232 229
150 143 153 155 162 164 160 159 164 167 175 165 163 161 163 168 173 166 163 164 168 165 163 153 150 144 178 178 198 212 206 212 208 192 192 225 239 235
161 164 175 179 181 181 179 180 182 183 180 173 171 173 176 178 176 173 176 183 191 189 178 169 157 134 23 267 220 212 210 212 206 197 190 215 248 242
175 178 187 190 189 185 184 185 189 187 179 178 182 181 180 180 180 186 192 196 200 199 188 175 176 171 181 235 239 208 194 192 187 201 209 211 233 248
179 186 192 192 189 188 188 188 187 182 181 184 185 186 186 187 190 193 196 200 202 198 195 191 197 200 200 200 214 222 209 195 190 204 212 217 247 266
180 185 188 189 188 188 187 187 187 188 185 186 191 191 192 192 199 200 200 208 208 204 209 213 212 201 182 148 213 239 225 217 209 195 185 189 227 243
182 189 190 188 187 188 185 184 187 190 191 194 196 196 196 197 203 203 203 206 209 211 215 205 175 172 184 206 224 226 226 222 230 235 229 212 188 208
188 194 194 193 193 191 189 189 192 197 197 199 200 201 200 203 205 206 208 208 207 206 204 194 180 186 203 213 226 234 233 222 213 225 244 243 243 247
Height
1487 1489 1491 1492 1494 1496 1498 1500 1502 1501 1502 1503 1504 1504 1505 1505 1505 1505 1506 1506 1506 1505 1505 1504 1503 1503 1503 1502 1502 1502 1502 1502 1502 1502 1502 1502 1504 1505
1481 1482 1485 1487 1488 1490 1492 1494 1496 1497 1497 1498 1499 1500 1500 1501 1502 1502 1502 1502 1502 1502 1502 1501 1501 1501 1500 1500 1500 1500 1500 1500 1500 1500 1500 1501 1502 1503
1475 1477 1479 1481 1482 1484 1487 1489 1490 1492 1492 1493 1494 1495 1496 1497 1498 1498 1498 1498 1499 1499 1499 1499 1499 1499 1498 1499 1499 1499 1498 1498 1498 1498 1498 1499 1500 1501
1469 1471 1473 1475 1476 1479 1481 1483 1485 1486 1488 1488 1489 1491 1492 1493 1494 1494 1494 1495 1496 1496 1496 1496 1496 1496 1497 1497 1497 1497 1497 1497 1497 1498 1498 1498 1499 1500
1464 1466 1468 1470 1472 1474 1476 1478 1480 1481 1482 1484 1484 1486 1487 1488 1489 1490 1491 1492 1493 1493 1494 1494 1494 1494 1494 1495 1495 1495 1496 1496 1496 1497 1497 1497 1498 1499
1459 1461 1463 1466 1468 1470 1472 1473 1475 1476 1478 1479 1480 1481 1483 1484 1486 1487 1488 1489 1490 1490 1491 1491 1492 1492 1492 1493 1494 1494 1494 1495 1495 1496 1496 1496 1497 1499
1455 1457 1459 1461 1463 1465 1468 1469 1471 1472 1474 1475 1476 1477 1479 1480 1482 1483 1484 1485 1486 1487 1488 1489 1489 1490 1490 1491 1492 1493 1493 1494 1494 1495 1495 1496 1497 1498
1451 1453 1455 1458 1459 1461 1464 1465 1467 1469 1469 1471 1472 1473 1475 1476 1478 1480 1481 1482 1483 1485 1485 1486 1487 1488 1489 1490 1491 1491 1492 1493 1493 1494 1494 1495 1497 1498
1448 1449 1452 1454 1456 1458 1460 1462 1463 1465 1466 1468 1469 1470 1471 1473 1475 1476 1477 1479 1480 1481 1483 1483 1485 1485 1487 1488 1489 1490 1491 1491 1492 1493 1494 1495 1496 1497
1445 1446 1449 1450 1453 1454 1456 1458 1460 1461 1462 1464 1465 1466 1468 1469 1471 1473 1474 1476 1477 1479 1480 1481 1482 1483 1484 1486 1487 1488 1489 1490 1491 1492 1493 1494 1495 1496
1441 1444 1446 1447 1449 1451 1453 1454 1456 1458 1459 1460 1462 1463 1464 1466 1468 1469 1471 1472 1473 1475 1477 1478 1479 1480 1482 1483 1484 1486 1487 1488 1489 1491 1491 1492 1494 1495
1439 1440 1443 1444 1446 1448 1450 1451 1453 1454 1456 1457 1458 1460 1461 1463 1464 1466 1468 1469 1470 1472 1473 1475 1476 1478 1480 1481 1482 1483 1485 1486 1487 1489 1490 1491 1492 1493
1436 1437 1439 1441 1443 1445 1446 1448 1450 1451 1453 1454 1455 1457 1458 1460 1462 1463 1465 1466 1468 1469 1471 1472 1474 1475 1477 1478 1479 1481 1482 1483 1485 1486 1487 1489 1490 1491
1433 1435 1436 1438 1440 1442 1443 1445 1447 1448 1450 1451 1453 1454 1456 1457 1459 1460 1462 1463 1465 1467 1468 1470 1471 1473 1474 1475 1477 1478 1479 1481 1482 1483 1485 1486 1487 1489
1430 1432 1434 1435 1437 1439 1441 1442 1444 1445 1447 1449 1450 1452 1453 1455 1456 1457 1459 1460 1462 1463 1465 1466 1468 1470 1471 1472 1474 1475 1476 1478 1479 1480 1482 1483 1485 1486
1428 1430 1431 1433 1434 1436 1438 1439 1441 1443 1444 1446 1448 1449 1450 1452 1453 1455 1456 1457 1459 1460 1462 1463 1465 1467 1468 1469 1471 1472 1474 1475 1476 1477 1479 1480 1481 1483
1425 1427 1428 1430 1431 1433 1435 1436 1438 1440 1441 1443 1445 1446 1447 1449 1450 1451 1453 1454 1456 1457 1459 1460 1462 1463 1465 1466 1467 1469 1470 1472 1473 1474 1475 1476 1478 1479
1423 1424 1425 1427 1428 1430 1432 1433 1435 1437 1438 1440 1441 1443 1444 1445 1447 1448 1450 1451 1453 1454 1456 1457 1459 1460 1462 1463 1465 1465 1467 1468 1470 1471 1472 1473 1474 1476
1420 1421 1422 1424 1425 1427 1429 1430 1432 1434 1435 1436 1438 1439 1441 1442 1443 1445 1446 1448 1449 1451 1452 1454 1455 1457 1458 1459 1461 1462 1464 1465 1466 1467 1468 1469 1470 1472
1417 1418 1419 1420 1422 1423 1425 1427 1429 1430 1431 1433 1434 1436 1437 1438 1440 1441 1443 1444 1446 1447 1448 1450 1451 1453 1454 1456 1457 1458 1460 1461 1462 1463 1464 1465 1465 1467
1413 1414 1416 1417 1419 1420 1422 1423 1425 1426 1427 1429 1430 1431 1433 1434 1436 1437 1439 1440 1442 1443 1444 1446 1448 1450 1451 1452 1453 1453 1456 1457 1457 1458 1459 1460 1460 1461
1410 1411 1412 1414 1415 1416 1418 1419 1420 1422 1423 1424 1426 1427 1429 1430 1432 1433 1435 1436 1438 1439 1441 1442 1444 1445 1446 1447 1448 1449 1451 1452 1453 1454 1455 1455 1455 1456
1407 1408 1409 1410 1411 1413 1414 1415 1416 1417 1418 1420 1421 1423 1424 1426 1427 1429 1430 1432 1433 1435 1436 1437 1439 1440 1441 1442 1443 1444 1445 1447 1448 1448 1450 1450 1451 1452